Weather History for KBAD - April, 2013

Change the Weather History Date:

Thursday, April 4, 2013

  Actual Average Record
Temperature  
Mean Temperature 44 °F -  
Max Temperature 47 °F 71 °F 81 °F (2012)
Min Temperature 41 °F 52 °F 41 °F (1998)
Degree Days  
Heating Degree Days 21    
Moisture  
Dew Point 42 °F    
Average Humidity 93    
Maximum Humidity 100    
Minimum Humidity 82    
Precipitation  
Precipitation 0.01 in - - ()
Sea Level Pressure  
Sea Level Pressure 30.09 in    
Wind  
Wind Speed 8 mph (North)    
Max Wind Speed 16 mph    
Max Gust Speed -    
Visibility 7 miles    
Events Rain    
Averages and records for this station are not official NWS values.
T = Trace of Precipitation, MM = Missing Value Source: NWS Daily Summary

Daily Weather History Graph

Daily Weather History Graph

Search for Another Location

Airport or City:

Trip Planner

Search our weather history database for the weather conditions in past years. The results will help you decide how hot, cold, wet, or windy it might be!

Date:

Astronomy

Apr. 04, 2013 Rise Set
Actual Time 6:58 AM CDT 7:36 PM CDT
Civil Twilight 6:33 AM CDT 8:01 PM CDT
Nautical Twilight 6:04 AM CDT 8:31 PM CDT
Astronomical Twilight 5:34 AM CDT 9:00 PM CDT
Moon 3:07 AM CDT 2:13 PM CDT
Length of Visible Light 13h 28m
Length of Day
12h 38m
Waning Crescent, 33% of the Moon is Illuminated
Apr 4
Waning Crescent
Apr 10
New
Apr 18
First Quarter
Apr 25
Full
May 2
Last Quarter

Hourly Weather History & Observations

Time (CDT) Temp. Windchill Dew Point Humidity Pressure Visibility Wind Dir Wind Speed Gust Speed Precip Events Conditions
12:14 AM 42.8 °F 38.0 °F 42.8 °F 100% 30.12 in 10.0 mi North 8.1 mph - N/A   Mostly Cloudy
12:54 AM 42.8 °F 39.3 °F 41.0 °F 93% 30.11 in 5.0 mi North 5.8 mph - N/A   Light Drizzle
12:58 AM 42.1 °F 38.4 °F 41.7 °F 99% 30.11 in 6.0 mi North 5.8 mph - 0.00 in   Light Drizzle
1:37 AM 41.0 °F 37.1 °F 41.0 °F 100% 30.09 in 9.0 mi NNE 5.8 mph - N/A Rain Light Rain
1:58 AM 41.0 °F 37.1 °F 41.0 °F 100% 30.10 in 6.0 mi North 5.8 mph - 0.00 in   Light Drizzle
2:42 AM 41.0 °F 38.0 °F 41.0 °F 100% 30.07 in 10.0 mi North 4.6 mph - N/A   Partly Cloudy
2:58 AM 41.5 °F 38.6 °F 41.4 °F 99% 30.07 in 10.0 mi North 4.6 mph - 0.01 in   Mostly Cloudy
3:08 AM 41.0 °F 37.1 °F 41.0 °F 100% 30.06 in 10.0 mi NNW 5.8 mph - N/A   Partly Cloudy
3:18 AM 42.8 °F 38.6 °F 41.0 °F 93% 30.06 in 10.0 mi NNW 6.9 mph - N/A   Mostly Cloudy
3:58 AM 42.1 °F 36.6 °F 41.9 °F 99% 30.06 in 6.0 mi North 9.2 mph - N/A   Overcast
4:48 AM 42.8 °F 38.0 °F 41.0 °F 93% 30.05 in 5.0 mi NNW 8.1 mph - N/A   Overcast
4:58 AM 42.8 °F 38.0 °F 41.0 °F 93% 30.05 in 10.0 mi North 8.1 mph - N/A   Overcast
5:58 AM 42.3 °F 36.8 °F 41.2 °F 96% 30.06 in 10.0 mi NNW 9.2 mph - N/A   Overcast
6:08 AM 42.8 °F 37.5 °F 41.0 °F 93% 30.05 in 5.0 mi NNW 9.2 mph - N/A   Overcast
6:58 AM 42.4 °F 36.1 °F 41.2 °F 95% 30.07 in 10.0 mi NNW 11.5 mph - N/A   Overcast
7:18 AM 42.8 °F 37.0 °F 41.0 °F 93% 30.07 in 4.0 mi North 10.4 mph - N/A   Overcast
7:31 AM 42.8 °F 37.5 °F 42.8 °F 100% 30.08 in 3.0 mi North 9.2 mph - N/A   Overcast
7:41 AM 42.8 °F 37.5 °F 42.8 °F 100% 30.08 in 2.0 mi North 9.2 mph - N/A   Light Drizzle
7:58 AM 42.6 °F 35.9 °F 42.4 °F 99% 30.09 in 2.5 mi North 12.7 mph - 0.00 in   Light Drizzle
8:32 AM 42.8 °F 37.0 °F 42.8 °F 100% 30.09 in 2.5 mi North 10.4 mph - N/A   Overcast
8:52 AM 42.8 °F 38.0 °F 42.8 °F 100% 30.09 in 3.0 mi North 8.1 mph - N/A   Overcast
8:58 AM 43.0 °F 37.7 °F 42.8 °F 99% 30.10 in 4.0 mi North 9.2 mph - 0.00 in   Overcast
9:18 AM 42.8 °F 36.6 °F 42.8 °F 100% 30.10 in 4.0 mi North 11.5 mph - N/A   Overcast
9:28 AM 42.8 °F 38.0 °F 42.8 °F 100% 30.09 in 7.0 mi North 8.1 mph - N/A   Overcast
9:58 AM 43.7 °F 38.1 °F 41.9 °F 93% 30.11 in 7.0 mi North 10.4 mph - N/A   Overcast
10:48 AM 44.6 °F 39.2 °F 41.0 °F 87% 30.10 in 6.0 mi North 10.4 mph - N/A   Overcast
10:58 AM 44.8 °F 41.0 °F 41.9 °F 90% 30.12 in 7.0 mi North 6.9 mph - N/A   Overcast
11:58 AM 45.3 °F 41.6 °F 42.1 °F 88% 30.12 in 7.0 mi North 6.9 mph - N/A   Overcast
12:58 PM 45.7 °F 41.0 °F 41.7 °F 86% 30.12 in 7.0 mi North 9.2 mph - N/A   Overcast
1:58 PM 46.0 °F 39.9 °F 42.1 °F 86% 30.10 in 10.0 mi NNW 13.8 mph - N/A   Overcast
2:58 PM 46.4 °F 39.8 °F 42.4 °F 86% 30.10 in 10.0 mi NNW 16.1 mph - N/A   Overcast
3:58 PM 46.6 °F - 41.7 °F 83% 30.08 in 10.0 mi North 13.8 mph - N/A   Overcast
4:58 PM 46.4 °F 40.4 °F 41.7 °F 84% 30.08 in 10.0 mi NNW 13.8 mph - N/A   Overcast
5:58 PM 46.6 °F - 41.5 °F 83% 30.09 in 10.0 mi NW 16.1 mph - N/A   Overcast
6:58 PM 46.9 °F - 41.9 °F 83% 30.10 in 10.0 mi NNW 11.5 mph - N/A   Overcast
7:58 PM 47.1 °F - 41.9 °F 82% 30.10 in 10.0 mi NNW 9.2 mph - N/A   Overcast
8:58 PM 46.9 °F - 42.4 °F 84% 30.11 in 10.0 mi NNW 10.4 mph - N/A   Mostly Cloudy
9:58 PM 46.9 °F - 43.3 °F 87% 30.14 in 10.0 mi NNW 8.1 mph - N/A   Overcast
10:58 PM 46.8 °F - 42.8 °F 86% 30.16 in 10.0 mi NNW 10.4 mph - N/A   Overcast
11:58 PM 43.7 °F 40.3 °F 41.9 °F 93% 30.16 in 10.0 mi NNW 5.8 mph - N/A   Scattered Clouds